Weather History for Grand Canyon, AZ

Change the Weather History Date:

Saturday, October 27, 2012

  Actual Average Record
Temperature  
Mean Temperature 40 °F -  
Max Temperature 64 °F 55 °F 75 °F (2008)
Min Temperature 17 °F 25 °F 13 °F (1989)
Degree Days  
Heating Degree Days 24    
Moisture  
Dew Point 5 °F    
Average Humidity 27    
Maximum Humidity 48    
Minimum Humidity 10    
Precipitation  
Precipitation 0.00 in - - ()
Sea Level Pressure  
Sea Level Pressure 30.16 in    
Wind  
Wind Speed 3 mph (NE)    
Max Wind Speed 10 mph    
Max Gust Speed -    
Visibility 10 miles    
Events      
Averages and records for this station are not official NWS values.
T = Trace of Precipitation, MM = Missing Value Source: NWS Daily Summary

Daily Weather History Graph

Daily Weather History Graph

Search for Another Location

Airport:

Trip Planner

Search our weather history database for the weather conditions in past years. The results will help you decide how hot, cold, wet, or windy it might be!

Date:

Astronomy

Oct. 27, 2012 Rise Set
Actual Time 6:46 AM MST 5:37 PM MST
Civil Twilight 6:20 AM MST 6:03 PM MST
Nautical Twilight 5:50 AM MST 6:33 PM MST
Astronomical Twilight 5:20 AM MST 7:03 PM MST
Moon 4:23 PM MST (10/27) 4:48 AM MST (10/27)
Length of Visible Light 11h 43m
Length of Day
10h 50m
Waxing Gibbous, 96% of the Moon is Illuminated
Oct 27
Waxing Gibbous
Oct 29
Full
Nov 6
Last Quarter
Nov 13
New
Nov 20
First Quarter

Hourly Weather History & Observations

Time (MST) Temp. Windchill Dew Point Humidity Pressure Visibility Wind Dir Wind Speed Gust Speed Precip Events Conditions
12:54 AM 21.9 °F 17.2 °F 1.0 °F 40% 30.19 in 10.0 mi NE 3.5 mph - N/A   Clear
1:54 AM 19.9 °F 14.9 °F 1.0 °F 44% 30.18 in 10.0 mi NE 3.5 mph - N/A   Clear
2:54 AM 21.0 °F 14.6 °F 1.0 °F 42% 30.17 in 10.0 mi NE 4.6 mph - N/A   Clear
3:54 AM 19.9 °F 13.4 °F 1.0 °F 44% 30.17 in 10.0 mi NE 4.6 mph - N/A   Clear
4:54 AM 18.0 °F - 1.0 °F 48% 30.21 in 10.0 mi Calm Calm - N/A   Clear
5:54 AM 17.1 °F - -0.0 °F 47% 30.22 in 10.0 mi Calm Calm - N/A   Clear
7:54 AM 28.0 °F - 3.0 °F 34% 30.25 in 10.0 mi Calm Calm - N/A   Clear
8:54 AM 46.0 °F - 3.0 °F 17% 30.18 in 10.0 mi Calm Calm - N/A   Clear
9:54 AM 55.9 °F - 10.0 °F 16% 30.16 in 10.0 mi East 4.6 mph - N/A   Clear
10:54 AM 62.1 °F - 10.0 °F 13% 30.13 in 10.0 mi East 4.6 mph - N/A   Clear
11:54 AM 61.0 °F - 5.0 °F 11% 30.12 in 10.0 mi SW 8.1 mph - N/A   Clear
12:54 PM 63.0 °F - 7.0 °F 11% 30.07 in 10.0 mi Calm Calm - N/A   Clear
1:54 PM 64.9 °F - 6.1 °F 10% 30.07 in 10.0 mi NNW 10.4 mph - N/A   Clear
2:54 PM 64.0 °F - 6.1 °F 10% 30.07 in 10.0 mi NNE 5.8 mph - N/A   Clear
3:54 PM 62.1 °F - 8.1 °F 12% 30.10 in 10.0 mi NE 8.1 mph - N/A   Clear
4:54 PM 60.1 °F - 8.1 °F 13% 30.12 in 10.0 mi NE 6.9 mph - N/A   Clear
5:54 PM 46.9 °F - 6.1 °F 19% 30.19 in 10.0 mi NE 5.8 mph - N/A   Clear
6:54 PM 37.9 °F - 5.0 °F 25% 30.25 in 10.0 mi Calm Calm - N/A   Clear
7:54 PM 34.0 °F - 5.0 °F 30% 30.22 in 10.0 mi Calm Calm - N/A   Clear
8:54 PM 32.0 °F - 5.0 °F 32% 30.17 in 10.0 mi Calm Calm - N/A   Clear
9:54 PM 30.0 °F - 6.1 °F 36% 30.14 in 10.0 mi Calm Calm - N/A   Clear
10:54 PM 26.1 °F - 3.9 °F 39% 30.14 in 10.0 mi Calm Calm - N/A   Clear
11:54 PM 26.1 °F - 3.9 °F 39% 30.14 in 10.0 mi Calm Calm - N/A   Clear